N6OIM Weather Reports


Display with metric or nautical units.
time (UTC)temp
F
wind
direction
speed
MPH
gust
MPH
rain 1hr
in
rain 24hr
in
rain mn
in
humidity
%
barometer
mb
20260904035818 69 246 0.0 0.0 0.00 0.00 0.00 69 1010.0
20260904035332 69 246 0.0 0.0 0.00 0.00 0.00 69 1010.0
20260904034823 69 246 0.0 0.0 0.00 0.00 0.00 69 1010.0
20260904034333 70 246 0.0 0.0 0.00 0.00 0.00 69 1009.9
20260904033822 70 246 0.0 0.0 0.00 0.00 0.00 70 1009.7
20260904033333 70 246 0.0 0.0 0.00 0.00 0.00 70 1009.7
20260904032822 70 246 0.0 0.0 0.00 0.00 0.00 70 1009.6
20260904032331 70 246 0.0 0.0 0.00 0.00 0.00 70 1009.6
20260904031821 70 245 0.0 0.0 0.00 0.00 0.00 70 1009.6
20260904031330 70 245 0.0 0.0 0.00 0.00 0.00 70 1009.6
20260904030821 70 246 0.0 0.0 0.00 0.00 0.00 69 1009.6
20260904030329 70 245 0.0 0.0 0.00 0.00 0.00 69 1009.6
20260904025817 70 246 0.0 0.0 0.00 0.00 0.00 69 1009.6
20260904025326 70 246 0.0 0.0 0.00 0.00 0.00 69 1009.6
20260904024835 70 245 0.0 0.0 0.00 0.00 0.00 69 1009.6
20260904024324 70 246 0.0 0.0 0.00 0.00 0.00 69 1009.7
20260904023832 70 245 0.0 0.0 0.00 0.00 0.00 69 1009.7
20260904023321 70 237 0.0 0.0 0.00 0.00 0.00 68 1009.8
20260904022814 70 237 0.0 0.0 0.00 0.00 0.00 68 1009.8
20260904022327 70 237 0.0 0.0 0.00 0.00 0.00 68 1009.7
20260904021819 71 238 0.0 0.0 0.00 0.00 0.00 68 1009.8
20260904021328 71 238 0.0 0.0 0.00 0.00 0.00 68 1009.8
20260904020820 71 238 0.0 0.0 0.00 0.00 0.00 67 1009.8
20260904020330 71 237 0.0 0.0 0.00 0.00 0.00 67 1009.8
20260904015818 71 237 0.0 0.0 0.00 0.00 0.00 67 1009.8
20260904015327 71 238 0.0 0.0 0.00 0.00 0.00 67 1009.9
20260904014835 71 238 0.0 0.0 0.00 0.00 0.00 67 1009.9
20260904014329 71 237 0.0 0.0 0.00 0.00 0.00 66 1009.9
20260904013820 71 244 0.0 0.0 0.00 0.00 0.00 66 1009.9
20260904013330 72 243 0.0 0.0 0.00 0.00 0.00 65 1009.9
20260904012819 72 241 0.0 0.0 0.00 0.00 0.00 65 1009.9
20260904012332 72 238 0.0 0.0 0.00 0.00 0.00 64 1010.0
20260904011821 72 246 0.0 0.0 0.00 0.00 0.00 64 1009.9
20260904011330 72 260 0.0 0.0 0.00 0.00 0.00 64 1010.1
20260904010821 73 317 0.0 0.0 0.00 0.00 0.00 64 1010.1
20260904010314 73 318 0.0 0.0 0.00 0.00 0.00 63 1010.1
20260904005825 73 264 0.0 0.0 0.00 0.00 0.00 63 1010.1
20260904005317 73 259 0.0 0.0 0.00 0.00 0.00 63 1010.1
20260904004826 73 246 0.0 0.0 0.00 0.00 0.00 62 1010.1
20260904004335 73 246 0.0 0.0 0.00 0.00 0.00 62 1010.1
20260904003823 73 188 0.0 0.0 0.00 0.00 0.00 62 1010.1
20260904003332 73 180 0.0 0.0 0.00 0.00 0.00 62 1010.1
20260904002820 74 213 0.0 0.0 0.00 0.00 0.00 61 1010.1
20260904002330 74 232 0.0 0.0 0.00 0.00 0.00 61 1010.1
20260904001823 74 279 0.0 0.0 0.00 0.00 0.00 60 1010.0
20260904001332 74 262 0.0 0.0 0.00 0.00 0.00 60 1010.1
20260904000821 74 245 0.0 0.0 0.00 0.00 0.00 60 1010.1
20260904000332 75 252 0.0 0.0 0.00 0.00 0.00 60 1010.1
20260903235821 75 267 0.0 0.0 0.00 0.00 0.00 60 1010.1
20260903235330 75 214 0.0 0.0 0.00 0.00 0.00 60 1010.1
20260903234818 75 262 0.0 0.0 0.00 0.00 0.00 60 1010.1
20260903234328 75 244 0.0 0.0 0.00 0.00 0.00 60 1010.1
20260903233821 75 217 0.0 0.0 0.00 0.00 0.00 60 1010.1
20260903233335 75 241 0.0 0.0 0.00 0.00 0.00 60 1010.1
20260903232823 75 195 0.0 0.0 0.00 0.00 0.00 59 1010.1
20260903232333 75 248 0.0 0.0 0.00 0.00 0.00 59 1010.1
20260903231825 75 248 0.0 0.0 0.00 0.00 0.00 59 1010.3
20260903231335 75 270 0.0 0.0 0.00 0.00 0.00 58 1010.3
20260903230824 75 276 0.0 0.0 0.00 0.00 0.00 59 1010.3
20260903230333 75 265 0.0 0.0 0.00 0.00 0.00 58 1010.3
20260903225821 76 259 0.0 0.0 0.00 0.00 0.00 58 1010.4
20260903225330 76 266 0.0 0.0 0.00 0.00 0.00 57 1010.4
20260903224822 76 230 0.0 0.0 0.00 0.00 0.00 56 1010.4
20260903224332 76 244 0.0 0.0 0.00 0.00 0.00 57 1010.3
20260903223821 76 190 0.0 0.0 0.00 0.00 0.00 56 1010.4
20260903223331 76 261 0.0 0.0 0.00 0.00 0.00 56 1010.4
20260903222823 76 243 0.0 0.0 0.00 0.00 0.00 56 1010.5
20260903222334 76 254 0.0 0.0 0.00 0.00 0.00 57 1010.7
20260903221823 76 248 0.0 0.0 0.00 0.00 0.00 57 1010.8
20260903221332 76 222 0.0 0.0 0.00 0.00 0.00 57 1010.8
20260903220824 76 253 0.0 0.0 0.00 0.00 0.00 58 1010.9
20260903220333 76 249 0.0 0.0 0.00 0.00 0.00 57 1011.1
20260903215822 76 214 0.0 0.0 0.00 0.00 0.00 57 1011.2
20260903215332 76 265 0.0 0.0 0.00 0.00 0.00 57 1011.1
20260903214821 75 215 0.0 0.0 0.00 0.00 0.00 58 1011.1
20260903214331 75 235 0.0 0.0 0.00 0.00 0.00 58 1011.1
20260903213820 75 246 0.0 0.0 0.00 0.00 0.00 58 1011.2
20260903213328 75 252 0.0 0.0 0.00 0.00 0.00 58 1011.2
20260903212821 75 265 0.0 0.0 0.00 0.00 0.00 58 1011.2
20260903212334 75 259 0.0 0.0 0.00 0.00 0.00 58 1011.3
20260903211822 75 236 0.0 0.0 0.00 0.00 0.00 58 1011.4
20260903211332 75 261 0.0 0.0 0.00 0.00 0.00 58 1011.3
20260903210823 75 279 0.0 0.0 0.00 0.00 0.00 58 1011.4
20260903210332 75 277 0.0 0.0 0.00 0.00 0.00 58 1011.4
20260903205823 75 219 0.0 0.0 0.00 0.00 0.00 58 1011.4
20260903205332 75 227 0.0 0.0 0.00 0.00 0.00 58 1011.4
20260903204820 75 242 0.0 0.0 0.00 0.00 0.00 57 1011.5
20260903204332 75 294 0.0 0.0 0.00 0.00 0.00 58 1011.6
20260903203824 75 249 0.0 0.0 0.00 0.00 0.00 57 1011.5
20260903203334 75 258 0.0 0.0 0.00 0.00 0.00 57 1011.5
20260903202823 75 236 0.0 0.0 0.00 0.00 0.00 57 1011.5
20260903202333 75 192 0.0 0.0 0.00 0.00 0.00 57 1011.5
20260903201822 75 259 0.0 0.0 0.00 0.00 0.00 57 1011.5
20260903201332 75 275 0.0 0.0 0.00 0.00 0.00 57 1011.6
20260903200820 75 330 0.0 0.0 0.00 0.00 0.00 56 1011.6
20260903200330 76 240 0.0 0.0 0.00 0.00 0.00 56 1011.7
20260903195823 76 258 0.0 0.0 0.00 0.00 0.00 55 1011.8
20260903195332 76 260 0.0 0.0 0.00 0.00 0.00 54 1011.9
20260903194824 76 262 0.0 0.0 0.00 0.00 0.00 54 1011.9
20260903194334 76 230 0.0 0.0 0.00 0.00 0.00 55 1011.9
20260903193822 76 242 0.0 0.0 0.00 0.00 0.00 56 1011.9
20260903193335 76 242 0.0 0.0 0.00 0.00 0.00 56 1012.0
20260903192822 76 246 0.0 0.0 0.00 0.00 0.00 55 1012.0
20260903192330 76 234 0.0 0.0 0.00 0.00 0.00 57 1012.2
20260903191819 76 241 0.0 0.0 0.00 0.00 0.00 57 1012.2
20260903191333 75 246 0.0 0.0 0.00 0.00 0.00 57 1012.4
20260903190821 75 257 0.0 0.0 0.00 0.00 0.00 57 1012.4
20260903190329 75 223 0.0 0.0 0.00 0.00 0.00 59 1012.6
20260903185817 74 196 0.0 0.0 0.00 0.00 0.00 59 1012.7
20260903185326 74 183 0.0 0.0 0.00 0.00 0.00 60 1012.7
20260903184814 74 229 0.0 0.0 0.00 0.00 0.00 61 1012.8
20260903184326 73 232 0.0 0.0 0.00 0.00 0.00 61 1012.8
20260903183834 73 259 0.0 0.0 0.00 0.00 0.00 62 1012.7
20260903183325 72 150 0.0 0.0 0.00 0.00 0.00 63 1012.7
20260903182816 72 144 0.0 0.0 0.00 0.00 0.00 63 1012.7
20260903182326 72 121 0.0 0.0 0.00 0.00 0.00 64 1012.8
20260903181835 71 121 0.0 0.0 0.00 0.00 0.00 65 1012.8
20260903181323 71 236 0.0 0.0 0.00 0.00 0.00 65 1012.9
20260903180830 71 232 0.0 0.0 0.00 0.00 0.00 66 1013.0
20260903180320 70 188 0.0 0.0 0.00 0.00 0.00 66 1013.0
20260903175829 70 185 0.0 0.0 0.00 0.00 0.00 67 1013.0
20260903175318 70 175 0.0 0.0 0.00 0.00 0.00 67 1013.0
20260903174826 69 178 0.0 0.0 0.00 0.00 0.00 67 1013.0
20260903174319 69 157 0.0 0.0 0.00 0.00 0.00 68 1013.0
20260903173827 69 157 0.0 0.0 0.00 0.00 0.00 69 1013.0
20260903173315 68 150 0.0 0.0 0.00 0.00 0.00 70 1013.0
20260903172825 68 145 0.0 0.0 0.00 0.00 0.00 70 1013.0
20260903172334 68 146 0.0 0.0 0.00 0.00 0.00 70 1013.1
20260903171823 67 140 0.0 0.0 0.00 0.00 0.00 71 1013.1
20260903171333 67 139 0.0 0.0 0.00 0.00 0.00 71 1013.3
20260903170822 67 138 0.0 0.0 0.00 0.00 0.00 72 1013.2
20260903170315 67 138 0.0 0.0 0.00 0.00 0.00 71 1013.4
20260903165828 66 138 0.0 0.0 0.00 0.00 0.00 72 1013.4
20260903165318 66 138 0.0 0.0 0.00 0.00 0.00 72 1013.3
20260903164826 66 138 0.0 0.0 0.00 0.00 0.00 72 1013.3
20260903164315 66 138 0.0 0.0 0.00 0.00 0.00 72 1013.4
20260903163826 66 130 0.0 0.0 0.00 0.00 0.00 72 1013.3
20260903163316 66 130 0.0 0.0 0.00 0.00 0.00 73 1013.4
20260903162825 66 129 0.0 0.0 0.00 0.00 0.00 73 1013.4
20260903162316 65 130 0.0 0.0 0.00 0.00 0.00 73 1013.4
20260903161829 65 130 0.0 0.0 0.00 0.00 0.00 73 1013.4
20260903161317 65 132 0.0 0.0 0.00 0.00 0.00 73 1013.4
20260903160825 65 145 0.0 0.0 0.00 0.00 0.00 73 1013.4
20260903160318 65 125 0.0 0.0 0.00 0.00 0.00 73 1013.4
20260903155830 65 125 0.0 0.0 0.00 0.00 0.00 73 1013.5
20260903155320 65 125 0.0 0.0 0.00 0.00 0.00 74 1013.5
20260903154828 65 129 0.0 0.0 0.00 0.00 0.00 74 1013.5
20260903154318 65 130 0.0 0.0 0.00 0.00 0.00 74 1013.5
20260903153827 64 129 0.0 0.0 0.00 0.00 0.00 75 1013.6
20260903153320 64 129 0.0 0.0 0.00 0.00 0.00 76 1013.5
20260903152829 64 132 0.0 0.0 0.00 0.00 0.00 77 1013.7
20260903152317 63 121 0.0 0.0 0.00 0.00 0.00 78 1013.6
20260903151825 63 125 0.0 0.0 0.00 0.00 0.00 78 1013.6
20260903151334 62 122 0.0 0.0 0.00 0.00 0.00 79 1013.6
20260903150821 62 118 0.0 0.0 0.00 0.00 0.00 78 1013.6
20260903150331 62 123 0.0 0.0 0.00 0.00 0.00 79 1013.5
20260903145820 62 123 0.0 0.0 0.00 0.00 0.00 79 1013.6
20260903145330 61 123 0.0 0.0 0.00 0.00 0.00 80 1013.5
20260903144821 61 123 0.0 0.0 0.00 0.00 0.00 80 1013.5
20260903144329 61 123 0.0 0.0 0.00 0.00 0.00 80 1013.5
20260903143817 61 118 0.0 0.0 0.00 0.00 0.00 80 1013.5
20260903143326 61 119 0.0 0.0 0.00 0.00 0.00 80 1013.5
20260903142835 60 118 0.0 0.0 0.00 0.00 0.00 80 1013.5
20260903142325 60 121 0.0 0.0 0.00 0.00 0.00 80 1013.4
20260903141833 60 121 0.0 0.0 0.00 0.00 0.00 80 1013.5
20260903141321 60 119 0.0 0.0 0.00 0.00 0.00 80 1013.4
20260903140831 60 119 0.0 0.0 0.00 0.00 0.00 80 1013.4
20260903140324 60 117 0.0 0.0 0.00 0.00 0.00 80 1013.4
20260903135833 60 119 0.0 0.0 0.00 0.00 0.00 79 1013.4
20260903135322 60 121 0.0 0.0 0.00 0.00 0.00 79 1013.4
20260903134831 60 121 0.0 0.0 0.00 0.00 0.00 79 1013.4
20260903134324 60 121 0.0 0.0 0.00 0.00 0.00 79 1013.4
20260903133833 60 124 0.0 0.0 0.00 0.00 0.00 79 1013.3
20260903133323 60 118 0.0 0.0 0.00 0.00 0.00 79 1013.3
20260903132830 60 119 0.0 0.0 0.00 0.00 0.00 78 1013.3
20260903132324 60 117 0.0 0.0 0.00 0.00 0.00 78 1013.4
20260903131832 61 117 0.0 0.0 0.00 0.00 0.00 78 1013.4
20260903131322 61 117 0.0 0.0 0.00 0.00 0.00 78 1013.4
20260903130830 61 117 0.0 0.0 0.00 0.00 0.00 78 1013.5
20260903130322 61 119 0.0 0.0 0.00 0.00 0.00 78 1013.5
20260903125830 61 118 0.0 0.0 0.00 0.00 0.00 78 1013.5
20260903125318 61 148 0.0 0.0 0.00 0.00 0.00 78 1013.5
20260903124827 61 148 0.0 0.0 0.00 0.00 0.00 78 1013.5
20260903124335 61 148 0.0 0.0 0.00 0.00 0.00 78 1013.4
20260903123828 61 153 0.0 0.0 0.00 0.00 0.00 78 1013.3
20260903123317 61 153 0.0 0.0 0.00 0.00 0.00 78 1013.3
20260903122825 61 132 0.0 0.0 0.00 0.00 0.00 78 1013.4
20260903122333 61 132 0.0 0.0 0.00 0.00 0.00 78 1013.4
20260903121821 61 130 0.0 0.0 0.00 0.00 0.00 78 1013.4
20260903121331 61 132 0.0 0.0 0.00 0.00 0.00 78 1013.4
20260903120818 61 132 0.0 0.0 0.00 0.00 0.00 78 1013.5
20260903120327 61 132 0.0 0.0 0.00 0.00 0.00 78 1013.5
20260903115818 61 132 0.0 0.0 0.00 0.00 0.00 78 1013.5
20260903115332 61 132 0.0 0.0 0.00 0.00 0.00 78 1013.5
20260903114820 61 132 0.0 0.0 0.00 0.00 0.00 78 1013.6
20260903114334 61 132 0.0 0.0 0.00 0.00 0.00 78 1013.7
20260903113825 61 136 0.0 0.0 0.00 0.00 0.00 78 1013.7
20260903113335 61 135 0.0 0.0 0.00 0.00 0.00 78 1013.7
20260903112823 61 135 0.0 0.0 0.00 0.00 0.00 78 1013.8
20260903112333 61 134 0.0 0.0 0.00 0.00 0.00 78 1013.9
20260903111821 61 136 0.0 0.0 0.00 0.00 0.00 78 1014.0
20260903111314 61 136 0.0 0.0 0.00 0.00 0.00 79 1013.9
20260903110825 61 134 0.0 0.0 0.00 0.00 0.00 79 1013.8
20260903110334 61 133 0.0 0.0 0.00 0.00 0.00 79 1013.9
20260903105822 61 136 0.0 0.0 0.00 0.00 0.00 79 1014.0
20260903105335 61 136 0.0 0.0 0.00 0.00 0.00 79 1013.8
20260903104823 61 136 0.0 0.0 0.00 0.00 0.00 79 1013.9
20260903104334 61 136 0.0 0.0 0.00 0.00 0.00 79 1013.9
20260903103822 61 124 0.0 0.0 0.00 0.00 0.00 78 1013.9
20260903103331 61 123 0.0 0.0 0.00 0.00 0.00 78 1013.9
20260903102824 61 125 0.0 0.0 0.00 0.00 0.00 78 1013.8
20260903102335 61 125 0.0 0.0 0.00 0.00 0.00 78 1013.9
20260903101822 61 125 0.0 0.0 0.00 0.00 0.00 78 1013.7
20260903101332 61 125 0.0 0.0 0.00 0.00 0.00 78 1013.9
20260903100820 61 125 0.0 0.0 0.00 0.00 0.00 78 1013.9
20260903100329 61 124 0.0 0.0 0.00 0.00 0.00 78 1013.8
20260903095819 61 128 0.0 0.0 0.00 0.00 0.00 77 1013.8
20260903095328 61 116 0.0 0.0 0.00 0.00 0.00 77 1013.9
20260903094817 61 147 0.0 0.0 0.00 0.00 0.00 77 1013.8
20260903094330 61 149 0.0 0.0 0.00 0.00 0.00 77 1013.8
20260903093822 61 163 0.0 0.0 0.00 0.00 0.00 77 1013.9
20260903093332 61 141 0.0 0.0 0.00 0.00 0.00 76 1013.9
20260903092820 61 140 0.0 0.0 0.00 0.00 0.00 76 1013.9
20260903092330 62 138 0.0 0.0 0.00 0.00 0.00 76 1014.0
20260903091817 62 139 0.0 0.0 0.00 0.00 0.00 75 1014.0
20260903091326 62 134 0.0 0.0 0.00 0.00 0.00 75 1014.1
20260903090816 62 128 0.0 0.0 0.00 0.00 0.00 75 1014.0
20260903090328 62 123 0.0 0.0 0.00 0.00 0.00 74 1014.0
20260903085820 62 163 0.0 0.0 0.00 0.00 0.00 74 1014.0
20260903085330 62 154 0.0 0.0 0.00 0.00 0.00 73 1014.1
20260903084818 62 152 0.0 0.0 0.00 0.00 0.00 73 1014.1
20260903084328 62 152 0.0 0.0 0.00 0.00 0.00 72 1014.1
20260903083816 62 151 0.0 0.0 0.00 0.00 0.00 72 1014.1
20260903083326 62 152 0.0 0.0 0.00 0.00 0.00 72 1014.1
20260903082815 63 152 0.0 0.0 0.00 0.00 0.00 72 1014.1
20260903082328 63 146 0.0 0.0 0.00 0.00 0.00 71 1014.2
20260903081821 63 146 0.0 0.0 0.00 0.00 0.00 71 1014.1
20260903081331 63 146 0.0 0.0 0.00 0.00 0.00 70 1014.1
20260903080823 63 166 0.0 0.0 0.00 0.00 0.00 70 1014.1
20260903080333 63 144 0.0 0.0 0.00 0.00 0.00 69 1014.1
20260903075821 63 141 0.0 0.0 0.00 0.00 0.00 69 1014.1
20260903075331 63 167 0.0 0.0 0.00 0.00 0.00 68 1014.1
20260903074819 64 167 0.0 0.0 0.00 0.00 0.00 68 1014.0
20260903074332 64 167 0.0 0.0 0.00 0.00 0.00 67 1014.0
20260903073821 64 167 0.0 0.0 0.00 0.00 0.00 66 1014.0
20260903073335 64 168 0.0 0.0 0.00 0.00 0.00 66 1014.1
20260903072823 64 169 0.0 0.0 0.00 0.00 0.00 65 1014.0
20260903072335 64 170 0.0 0.0 0.00 0.00 0.00 65 1014.0
20260903071823 65 169 0.0 0.0 0.00 0.00 0.00 65 1014.0
20260903071335 65 174 0.0 0.0 0.00 0.00 0.00 65 1014.0
20260903070822 65 178 0.0 0.0 0.00 0.00 0.00 64 1014.0
20260903070332 65 178 0.0 0.0 0.00 0.00 0.00 64 1014.0
20260903065819 65 191 0.0 0.0 0.00 0.00 0.00 63 1014.0
20260903065329 65 254 0.0 0.0 0.00 0.00 0.00 63 1014.0
20260903064821 66 257 0.0 0.0 0.00 0.00 0.00 63 1013.9
20260903064331 66 258 0.0 0.0 0.00 0.00 0.00 62 1014.0
20260903063819 66 258 0.0 0.0 0.00 0.00 0.00 62 1014.1
20260903063332 66 258 0.0 0.0 0.00 0.00 0.00 62 1014.0
20260903062820 66 258 0.0 0.0 0.00 0.00 0.00 62 1014.1
20260903062329 66 258 0.0 0.0 0.00 0.00 0.00 62 1014.1
20260903061817 66 257 0.0 0.0 0.00 0.00 0.00 62 1014.1
20260903061325 66 258 0.0 0.0 0.00 0.00 0.00 62 1014.1
20260903060818 66 258 0.0 0.0 0.00 0.00 0.00 62 1014.2
20260903060326 66 258 0.0 0.0 0.00 0.00 0.00 62 1014.1
20260903055817 66 257 0.0 0.0 0.00 0.00 0.00 61 1014.1
20260903055325 66 258 0.0 0.0 0.00 0.00 0.00 61 1014.1
20260903054833 67 257 0.0 0.0 0.00 0.00 0.00 61 1014.1
20260903054321 67 258 0.0 0.0 0.00 0.00 0.00 61 1014.0
20260903053829 67 257 0.0 0.0 0.00 0.00 0.00 61 1014.1
20260903053318 67 257 0.0 0.0 0.00 0.00 0.00 61 1014.1
20260903052826 67 258 0.0 0.0 0.00 0.00 0.00 61 1014.1
20260903052319 67 258 0.0 0.0 0.00 0.00 0.00 60 1014.2
20260903051827 67 258 0.0 0.0 0.00 0.00 0.00 59 1014.1
20260903051317 67 258 0.0 0.0 0.00 0.00 0.00 59 1014.0
20260903050826 68 257 0.0 0.0 0.00 0.00 0.00 58 1014.0
20260903050335 68 258 0.0 0.0 0.00 0.00 0.00 58 1014.1
20260903045823 68 258 0.0 0.0 0.00 0.00 0.00 57 1014.1
20260903045335 68 258 0.0 0.0 0.00 0.00 0.00 57 1014.1
20260903044822 68 258 0.0 0.0 0.00 0.00 0.00 56 1014.1
20260903044332 69 258 0.0 0.0 0.00 0.00 0.00 56 1014.1
20260903043826 69 258 0.0 0.0 0.00 0.00 0.00 55 1014.1
20260903043335 69 257 0.0 0.0 0.00 0.00 0.00 56 1014.1
20260903042823 69 257 0.0 0.0 0.00 0.00 0.00 55 1014.0
20260903042332 70 258 0.0 0.0 0.00 0.00 0.00 54 1014.0
20260903041823 70 258 0.0 0.0 0.00 0.00 0.00 55 1013.9
20260903041333 70 258 0.0 0.0 0.00 0.00 0.00 54 1013.8
20260903040825 70 258 0.0 0.0 0.00 0.00 0.00 53 1013.7
20260903040334 70 258 0.0 0.0 0.00 0.00 0.00 53 1013.7